SCP
3 3 3 2 2 2 2 1 1 1 1 1 0 0 0 0 0 1 1 1 2 1 1 1 1 1 1 1 1 1 1 1 1 1 1 1 1 0 0 0 0 0 0
3 4 3 3 2 2 2 2 1 1 1 1 1 0 0 0 1 1 1 1 1 1 1 1 1 1 1 1 1 1 1 1 1 1 1 1 1 0 0 0 0 0 0
4 4 4 3 3 2 2 2 1 1 1 1 1 1 1 1 1 1 1 1 1 1 1 1 1 1 1 1 1 1 1 1 1 1 1 1 1 0 0 0 0 0 0
4 4 5 4 4 3 3 3 2 1 1 1 1 1 1 1 1 1 1 1 1 1 1 1 1 1 1 1 1 1 1 1 1 1 1 1 1 0 0 0 0 0 0
4 5 5 5 4 4 3 3 2 2 1 1 1 1 1 1 1 1 1 1 1 1 1 1 1 1 1 1 1 1 1 1 1 1 1 1 1 1 0 0 0 0 0
5 5 5 5 4 4 3 3 3 2 2 1 1 1 1 1 2 2 1 1 1 1 1 1 1 1 1 1 1 1 1 1 1 1 1 1 1 1 0 0 0 0 0
6 5 5 5 4 4 3 3 3 3 2 2 1 1 1 1 2 2 2 1 1 1 1 1 1 1 1 1 1 2 1 1 1 1 1 1 1 1 0 0 0 0 0
6 5 5 5 4 4 4 3 3 2 2 2 2 1 1 1 2 2 1 1 1 1 1 1 1 1 1 1 1 2 2 1 1 0 0 1 1 1 1 0 0 0 0
5 5 5 5 5 5 4 3 2 2 2 2 2 1 1 1 1 1 1 1 1 1 1 1 1 1 1 1 1 2 2 1 1 0 0 1 1 1 0 0 0 0 0
5 4 4 4 5 5 5 3 2 2 2 2 2 2 1 1 1 1 1 1 1 1 1 1 1 1 1 1 1 1 1 1 0 0 0 1 1 1 0 0 0 0 0
4 4 4 4 5 5 5 4 3 2 2 2 1 1 1 1 1 1 1 1 1 1 1 1 1 1 1 1 1 1 0 0 0 0 0 1 1 0 0 0 0 0 0
4 3 3 4 5 5 5 5 4 3 2 2 1 1 1 1 1 1 1 1 1 1 1 1 1 1 1 1 1 0 0 0 0 0 0 0 0 0 0 0 0 0 0
3 3 2 3 4 4 4 4 3 2 2 2 2 1 1 1 1 1 1 1 1 1 1 1 1 1 1 1 1 0 0 0 0 0 0 0 0 0 0 0 0 0 0
2 2 2 2 2 3 3 3 3 2 2 1 1 1 1 1 1 1 1 1 1 1 1 1 1 1 1 1 0 0 0 0 0 0 0 0 0 0 0 0 0 0 0
1 1 1 1 1 2 2 2 2 2 1 1 1 1 1 1 1 1 1 1 1 1 1 1 1 1 1 1 0 0 0 0 0 0 0 0 0 0 0 0 0 0 0
0 0 0 0 0 1 1 1 1 1 1 1 1 1 1 1 1 1 1 1 1 1 1 1 1 1 1 0 0 0 0 0 0 0 0 0 0 0 0 0 0 0 0
0 0 0 0 0 0 0 1 1 1 1 1 1 1 1 1 1 1 1 1 1 1 1 1 1 1 1 0 0 0 0 0 0 0 0 0 0 0 0 0 0 0 0
0 0 0 0 0 0 0 0 0 0 0 0 0 0 0 1 1 1 1 1 1 1 1 1 1 1 1 1 0 0 0 0 0 0 0 0 0 0 0 0 0 0 0
0 0 0 0 0 0 0 0 0 0 0 0 0 0 0 0 0 1 1 1 1 1 1 1 1 1 1 1 1 0 0 0 0 0 0 0 0 0 0 0 0 0 0
0 0 0 0 0 0 0 0 0 0 0 0 0 0 0 0 0 0 1 1 1 1 1 1 1 1 1 1 1 0 0 0 0 0 0 0 0 0 0 0 0 0 0
0 0 0 0 0 0 0 0 0 0 0 0 0 0 0 0 0 0 0 0 1 1 1 1 1 1 1 1 0 0 0 0 0 1 0 0 0 0 0 0 0 0 0
0 0 0 0 0 0 0 0 0 0 0 0 0 0 0 0 0 0 0 0 0 0 1 1 1 1 0 0 0 0 0 0 0 1 1 0 0 0 0 0 0 0 0
0 0 0 0 0 0 0 0 0 0 0 0 0 0 0 0 0 0 0 0 0 0 0 0 0 0 0 0 0 0 0 0 0 0 0 0 0 0 0 0 0 0 0
0 0 0 0 0 0 0 0 0 0 0 0 0 0 0 0 0 0 0 0 0 0 0 0 0 0 0 0 0 0 0 0 0 0 0 0 0 0 0 0 0 0 0
0 0 0 0 0 0 0 0 0 0 0 0 0 0 0 0 0 0 0 0 0 0 0 0 0 0 0 0 0 0 0 0 0 0 0 0 0 0 0 0 0 0 0
0 0 0 0 0 0 0 0 0 0 0 0 0 0 0 0 0 0 0 0 0 0 0 0 0 0 0 0 0 0 0 0 0 0 0 0 0 0 0 0 0 0 0
Wind_Speed
4 3 2 2 3 2 4 4 4 5 4 3 4 6 4 4 4 3 3 10 12 12 12 12 11 12 12 13 14 15 16 18 19 20 20 20 19 19 18 17 15 14 13
3 3 3 3 4 3 2 2 3 2 2 3 5 5 5 5 4 4 4 7 13 13 13 13 13 13 13 13 14 14 15 16 17 19 21 21 20 20 20 18 17 16 14
5 4 4 4 4 3 3 3 3 2 4 5 6 7 5 5 5 5 4 3 6 13 14 14 14 14 14 14 14 15 15 15 16 18 21 22 21 20 21 20 19 17 15
6 4 4 4 4 4 3 3 3 3 4 5 4 4 4 5 6 5 5 5 4 4 10 16 15 14 15 14 14 15 14 14 14 16 20 23 23 22 22 21 20 18 16
6 5 4 3 3 3 3 4 4 4 4 4 5 5 4 4 5 7 6 5 4 3 4 9 15 16 16 14 15 15 14 13 11 13 18 23 25 24 23 23 21 19 17
5 4 4 4 4 3 3 3 2 3 3 3 6 4 4 5 5 5 6 5 5 6 4 2 6 9 13 15 15 15 14 13 12 12 16 21 25 25 25 25 23 21 19
6 4 5 4 4 4 5 5 3 3 3 3 3 4 5 7 6 5 4 4 3 3 3 5 4 2 3 10 14 15 14 13 13 12 14 18 24 26 27 27 25 22 19
6 7 7 6 5 4 5 5 3 2 3 3 3 3 4 3 1 4 5 5 5 3 4 6 5 5 4 3 5 11 13 12 11 11 12 16 22 25 27 28 26 23 20
8 8 8 7 6 5 4 4 4 5 4 4 4 3 3 2 2 4 5 4 4 3 3 4 4 4 4 3 1 4 6 7 10 12 12 13 19 23 26 28 27 24 22
8 9 9 9 7 5 4 4 4 4 5 5 4 3 4 2 2 3 3 3 5 5 5 4 3 3 2 0 1 2 2 5 8 9 10 11 17 22 27 28 27 25 23
8 10 9 7 7 5 5 4 2 2 2 4 4 3 4 4 4 4 4 3 2 4 5 5 4 2 0 1 3 4 3 4 4 3 4 10 19 26 29 28 27 26 24
7 8 8 6 6 5 4 3 2 2 2 5 5 5 4 3 4 5 6 5 5 4 4 3 2 1 1 3 6 5 3 2 2 5 10 17 24 27 27 27 26 25 23
5 5 4 3 3 3 2 2 1 1 2 5 7 6 5 5 5 5 5 5 4 2 1 1 1 1 2 4 4 4 4 5 8 10 15 19 23 24 24 24 23 22 21
5 7 6 4 3 2 2 2 1 1 2 4 8 8 5 5 5 5 3 2 2 3 2 2 0 1 3 5 4 4 5 7 10 12 15 17 19 19 19 19 18 17 16
4 7 7 7 7 7 7 5 3 3 3 4 6 7 5 5 5 5 2 1 1 2 3 2 1 1 3 5 3 4 5 7 10 12 13 15 15 15 14 13 12 12 11
5 6 7 7 7 7 7 5 4 4 4 4 5 7 6 5 4 3 3 2 1 2 3 2 0 1 3 5 4 5 6 10 10 11 12 12 12 12 12 11 11 11 10
3 3 3 3 3 3 3 3 3 4 4 5 6 5 4 4 4 3 3 3 3 3 4 4 2 1 2 4 4 5 7 6 6 10 11 11 11 12 12 12 11 11 11
1 1 1 2 3 3 3 3 3 3 3 3 3 3 4 5 5 4 4 4 4 4 4 5 3 2 3 5 5 5 6 7 6 12 14 14 14 14 14 13 13 13 13
3 3 3 3 2 2 2 3 3 3 3 3 4 5 6 6 6 6 5 4 3 4 3 4 3 2 2 4 5 4 4 2 5 9 16 16 15 15 14 14 14 14 14
3 5 4 4 4 6 8 8 6 3 3 4 5 6 7 7 7 8 6 6 5 3 3 3 3 2 3 4 3 3 1 0 2 2 3 8 12 15 15 14 14 15 15
4 4 5 7 7 7 8 9 8 5 6 6 6 6 6 7 7 7 7 7 7 4 3 2 2 1 2 4 3 2 2 1 2 2 2 1 3 5 8 12 15 15 14
3 3 5 7 8 7 10 11 9 5 6 6 5 4 5 7 8 7 5 6 8 7 6 4 3 3 3 2 2 2 2 1 1 1 2 2 2 2 2 1 3 8 11
4 4 5 7 6 6 11 13 13 5 6 5 5 5 6 7 8 7 3 2 6 10 9 7 7 6 4 3 2 2 2 2 1 1 2 2 2 2 2 4 5 3 1
4 4 4 6 5 6 11 12 12 5 7 7 7 7 7 8 11 8 5 5 6 7 8 7 6 5 4 3 3 2 2 1 1 0 1 1 1 1 1 1 1 1 1
5 4 4 5 5 6 11 12 10 3 5 6 8 9 8 8 14 14 8 7 6 4 5 7 6 4 3 2 1 1 1 1 0 0 1 1 1 1 2 2 2 3 3
4 4 5 6 6 7 12 15 12 3 3 4 5 7 11 11 13 14 8 7 7 7 8 3 2 2 3 2 2 1 1 1 0 0 1 1 1 1 2 3 4 3 3
Wind_Direction
203 204 175 164 240 215 181 222 227 219 222 257 270 268 260 264 272 265 165 187 201 212 224 234 241 247 251 252 253 251 247 243 234 222 216 213 209 202 196 195 194 191 187
220 176 170 188 241 237 193 191 255 254 241 246 249 251 242 254 247 245 225 211 215 219 225 232 236 241 247 255 261 263 258 251 239 224 217 214 210 203 197 194 193 191 188
221 198 195 193 224 233 210 199 253 259 250 244 234 238 226 233 245 241 244 234 218 219 224 230 233 236 242 253 262 267 263 254 242 228 217 212 208 202 196 192 190 189 186
225 215 206 213 211 218 206 194 221 240 247 253 240 228 221 204 224 231 235 232 220 210 215 225 231 235 243 253 262 268 268 261 246 231 219 211 207 200 194 190 187 183 183
225 228 225 227 218 232 221 232 199 212 244 254 256 226 222 214 210 224 226 236 228 205 214 216 217 233 243 252 258 263 266 267 256 237 223 213 206 199 192 187 182 179 183
239 244 237 229 238 246 239 246 232 218 249 263 276 274 228 223 205 215 219 230 214 206 211 160 206 235 235 244 249 254 259 260 258 248 232 217 208 198 190 183 177 176 183
260 257 261 248 235 246 241 243 230 227 238 261 285 293 272 238 208 199 200 232 229 201 181 213 215 217 225 242 241 243 250 256 258 252 239 222 208 197 188 180 171 172 182
253 255 243 242 239 240 245 246 240 229 241 228 235 275 289 302 266 207 193 196 214 219 226 227 203 206 219 236 230 225 239 259 267 261 248 225 206 195 185 173 164 169 182
247 244 248 243 240 235 231 232 235 234 242 247 228 232 261 269 305 269 217 209 180 196 241 249 229 220 219 232 244 202 232 260 270 266 256 229 203 188 175 163 162 171 183
259 249 242 240 236 226 221 226 227 233 246 257 256 235 241 264 261 302 286 233 190 206 225 250 269 272 265 329 58 60 299 282 278 270 253 224 189 170 161 161 165 174 185
267 255 245 236 229 221 214 221 244 241 247 260 259 246 242 245 235 238 269 287 248 228 214 221 231 245 284 31 69 56 357 315 289 258 207 170 158 156 158 163 169 178 188
287 267 252 238 227 218 203 195 204 244 259 268 265 252 235 226 225 226 238 256 256 242 202 203 215 220 50 68 64 49 25 26 108 128 132 140 147 153 160 166 174 183 190
324 315 284 253 226 210 185 160 169 231 272 278 272 264 255 252 253 245 242 258 274 285 269 257 220 133 71 86 81 61 71 98 111 123 131 139 148 156 162 170 179 187 194
6 7 7 9 15 38 56 70 69 314 305 288 280 274 272 275 281 286 281 281 292 293 286 267 302 124 90 92 99 86 99 110 117 123 130 141 149 157 166 176 185 193 198
16 30 27 25 25 28 30 29 14 350 335 300 285 282 278 276 277 287 309 331 279 281 281 251 232 130 108 100 124 108 115 122 127 131 135 143 153 162 174 185 194 198 203
29 38 35 31 25 19 15 14 3 346 322 291 275 267 265 265 275 287 287 278 225 227 261 271 282 67 109 126 131 116 119 131 133 139 144 152 162 171 183 197 205 210 214
25 46 45 34 19 354 335 329 321 302 283 271 267 276 287 298 305 308 305 283 254 226 241 259 233 160 128 123 138 136 139 149 155 162 167 174 182 190 199 208 215 220 222
360 349 284 247 241 240 244 258 276 288 282 287 316 341 342 342 338 319 299 278 265 243 238 262 259 198 174 159 158 164 159 174 174 186 193 198 202 205 208 214 220 225 228
352 348 330 317 305 310 308 315 302 295 314 358 25 24 15 10 358 342 320 304 288 276 245 249 255 199 167 165 165 181 189 174 203 195 201 210 214 216 216 217 220 224 227
10 357 348 354 6 35 22 6 350 344 19 46 54 49 37 29 12 349 350 350 329 314 293 262 250 199 160 160 155 169 195 310 285 304 203 212 217 219 223 223 222 222 223
38 19 21 29 27 48 23 7 351 32 50 62 65 66 58 41 30 16 16 3 359 357 339 310 273 185 147 156 169 160 171 342 330 345 340 268 210 211 215 224 225 223 222
38 37 56 56 39 37 12 16 14 36 53 61 65 67 67 37 14 4 5 24 28 23 7 11 16 50 61 96 110 127 140 153 269 4 31 339 350 294 262 210 216 216 220
34 36 70 78 63 31 17 16 10 30 55 58 58 50 46 33 15 350 332 353 37 36 34 41 49 47 48 36 70 111 123 159 212 332 42 324 349 341 30 52 54 59 190
30 36 77 94 89 50 22 13 359 63 59 50 42 40 46 31 11 0 49 60 60 41 37 47 52 56 61 54 64 89 113 144 229 197 118 263 302 299 62 56 28 326 269
19 33 68 89 84 54 24 14 358 102 97 85 68 48 36 31 11 14 28 31 35 46 68 74 74 82 86 76 66 139 153 173 199 146 122 183 223 219 198 192 202 234 255
15 29 55 59 59 50 32 25 13 39 88 111 106 79 49 30 19 18 19 22 14 353 344 328 173 193 200 194 237 304 355 1 315 215 165 216 213 169 219 175 169 185 218